Regional Weather Roundup
Issued by NWS

Home | Current Version | Previous Version | Graphics & Text | Print | Product List | Glossary On
Versions: 1 2 3 4 5 6 7 8 9 10 11 12 13 14 15 16 17 18 19 20 21 22 23 24 25 26 27 28 29 30 31 32 33 34 35 36 37 38 39 40 41 42 43 44 45 46 47 48 49 50
000
ASUS44 KMEG 270500
RWRTN
TENNESSEE HOURLY STATE WEATHER ROUNDUP
NATIONAL WEATHER SERVICE MEMPHIS TN
1100 PM CST WED NOV 26 2014

TNZ002-004-019-021-049-052-054-088>092-270600-
WEST TENNESSEE

CITY           SKY/WX    TMP DP  RH WIND       PRES   REMARKS
MEMPHIS INTL   CLEAR     43  29  57 NW13      30.18S
NWS MEMPHIS      N/A     35 N/A N/A MISG        N/A
JACKSON        PTCLDY    36  32  85 W6        30.15R WCI  31
DYERSBURG      CLOUDY    39  27  60 W5        30.17R
UNION CITY     CLOUDY    36  34  93 W6        30.13R WCI  31
PARIS          CLOUDY    34  32  93 W7        30.11S WCI  28
LEXINGTON      MOCLDY    37  32  81 W6        30.12R WCI  33
SAVANNAH       CLEAR     37  30  75 CALM      30.15S
$$

TNZ008-025-027-028-033-062-065-066-270600-
NORTH MIDDLE TENNESSEE

CITY           SKY/WX    TMP DP  RH WIND       PRES   REMARKS
NASHVILLE      CLOUDY    41  34  76 W12G21    30.07R
CLARKSVILLE    CLOUDY    38  33  82 W14G22    30.08R WCI  30
COOKEVILLE     MOCLDY    39  39 100 W9        30.01R WCI  33
CROSSVILLE     CLOUDY    37  34  89 VRB3      29.98F
$$

TNZ061-075-076-078-094-096-097-270600-
SOUTH MIDDLE TENNESSEE

CITY           SKY/WX    TMP DP  RH WIND       PRES   REMARKS
WINCHESTER     PTCLDY    39  34  81 W10       30.08R WCI  32
SHELBYVILLE    CLEAR     39  36  87 W12       30.09R WCI  32
$$

TNZ017-018-042-046-047-270600-
NORTHEAST TENNESSEE

CITY           SKY/WX    TMP DP  RH WIND       PRES   REMARKS
TRI CITIES     CLOUDY    38  36  92 CALM      30.00S
ELIZABETHTON   CLOUDY    34  34 100 CALM      30.00S
$$

TNZ012-013-036-069-073-074-270600-
CENTRAL EAST TENNESSEE

CITY           SKY/WX    TMP DP  RH WIND       PRES   REMARKS
KNOXVILLE      LGT RAIN  42  36  79 SW9       30.00F
OAK RIDGE      LGT RAIN  43  35  73 CALM      30.01F
GATLINBURG     CLOUDY    43  30  61 VRB6      30.00F
$$

TNZ083-085-099-270600-
SOUTHEAST TENNESSEE

CITY           SKY/WX    TMP DP  RH WIND       PRES   REMARKS
CHATTANOOGA    MOCLDY    44  38  79 W10       30.05R
$$

SKY/WX REPORTED AS FAIR MEANS FEW OR NO CLOUDS BELOW
12 THOUSAND FEET.



USA.gov is the U.S. government's official web portal to all federal, state and local government web resources and services.